South Haven, MI

6:21 PM EST on December 14, 2017 (GMT -0500)
South Haven

Weather History for KLWA - January, 2013

Change the Weather History Date:

Tuesday, January 29, 2013

  Actual Average (KBEH) Record (KBEH)
Temperature  
Mean Temperature 47 °F -  
Max Temperature 59 °F 31 °F 60 °F (2013)
Min Temperature 35 °F 17 °F -8 °F (1955)
Degree Days  
Heating Degree Days 18    
Moisture  
Dew Point 51 °F    
Average Humidity 95    
Maximum Humidity 99    
Minimum Humidity 88    
Precipitation  
Precipitation 0.00 in - - ()
Sea Level Pressure  
Sea Level Pressure 29.65 in    
Wind  
Wind Speed 10 mph (South)    
Max Wind Speed 17 mph    
Max Gust Speed 30 mph    
Visibility 4 miles    
Events Fog , Rain    
Averages and records for this station are not official NWS values.
T = Trace of Precipitation, MM = Missing Value Source: NWS Daily Summary

Daily Weather History Graph

Daily Weather History Graph

Search for Another Location

Airport or City:

Trip Planner

Search our weather history database for the weather conditions in past years. The results will help you decide how hot, cold, wet, or windy it might be!

Date:

Astronomy

Jan. 29, 2013 Rise Set
Actual Time 8:01 AM EST 5:55 PM EST
Civil Twilight 7:31 AM EST 6:25 PM EST
Nautical Twilight 6:57 AM EST 6:59 PM EST
Astronomical Twilight 6:24 AM EST 7:32 PM EST
Moon 8:55 PM EST (1/29) 8:53 AM EST (1/29)
Length of Visible Light 10h 54m
Length of Day
9h 54m
Waning Gibbous, 94% of the Moon is Illuminated
Jan 29
Waning Gibbous
Feb 3
Last Quarter
Feb 10
New
Feb 17
First Quarter
Feb 25
Full

Hourly Weather History & Observations

Time (EST) Temp. Windchill Dew Point Humidity Pressure Visibility Wind Dir Wind Speed Gust Speed Precip Events Conditions
12:14 AM 36.0 °F 29.6 °F 34.9 °F 96% 29.92 in 3.0 mi ESE 8.1 mph - N/A   Overcast
12:35 AM 35.8 °F 30.1 °F 35.1 °F 97% 29.92 in 1.5 mi ESE 6.9 mph - N/A   Overcast
1:00 AM 36.0 °F 29.6 °F 35.2 °F 97% 29.90 in 1.0 mi ESE 8.1 mph - N/A   Overcast
1:15 AM 36.1 °F 29.9 °F 35.6 °F 98% 29.89 in 1.0 mi ESE 8.1 mph - N/A   Overcast
1:34 AM 36.5 °F 31.8 °F 35.8 °F 97% 29.88 in 1.0 mi SE 5.8 mph - N/A   Overcast
1:55 AM 36.9 °F 28.7 °F 36.5 °F 99% 29.84 in 1.2 mi ESE 12.7 mph 16.1 mph N/A Rain Light Rain
2:15 AM 37.6 °F 31.0 °F 37.2 °F 99% 29.83 in 2.5 mi ESE 9.2 mph - N/A Rain Light Rain
2:35 AM 38.5 °F 34.1 °F 37.9 °F 98% 29.81 in 3.0 mi East 5.8 mph - N/A Rain Rain
2:52 AM 40.5 °F 37.3 °F 40.1 °F 99% 29.85 in 4.0 mi SSW 4.6 mph - N/A Rain Light Rain
3:15 AM 41.9 °F 40.0 °F 41.5 °F 99% 29.81 in 5.0 mi East 3.5 mph - N/A   Overcast
3:54 AM 42.1 °F 38.4 °F 41.7 °F 99% 29.78 in 1.2 mi ESE 5.8 mph - N/A   Overcast
4:14 AM 43.5 °F 40.1 °F 43.0 °F 98% 29.76 in 1.0 mi ESE 5.8 mph - N/A   Overcast
4:34 AM 46.4 °F 43.5 °F 46.0 °F 99% 29.74 in 0.8 mi SSE 5.8 mph - N/A Rain Light Rain
4:59 AM 48.2 °F - 47.8 °F 99% 29.73 in 1.0 mi South 10.4 mph 16.1 mph N/A Rain Light Rain
5:15 AM 48.4 °F - 48.2 °F 99% 29.72 in 0.8 mi South 10.4 mph - N/A Rain Light Rain
5:34 AM 49.1 °F - 48.6 °F 98% 29.72 in 0.5 mi South 8.1 mph - N/A Fog Fog
5:55 AM 49.8 °F - 49.5 °F 99% 29.71 in 0.5 mi South 10.4 mph - N/A Rain Rain
6:15 AM 52.7 °F - 52.3 °F 99% 29.71 in 3.0 mi South 9.2 mph - N/A   Overcast
6:35 AM 54.1 °F - 53.8 °F 99% 29.71 in 4.0 mi SSW 11.5 mph 17.3 mph N/A   Overcast
6:55 AM 55.4 °F - 54.9 °F 98% 29.71 in 4.0 mi SSW 10.4 mph 20.7 mph N/A   Overcast
7:15 AM 55.9 °F - 55.4 °F 98% 29.71 in 4.0 mi SSW 12.7 mph 20.7 mph N/A   Overcast
7:34 AM 56.3 °F - 55.0 °F 96% 29.70 in 5.0 mi SSW 11.5 mph 18.4 mph N/A   Overcast
7:54 AM 56.3 °F - 54.9 °F 95% 29.70 in 5.0 mi SSW 11.5 mph 17.3 mph N/A   Overcast
8:15 AM 56.5 °F - 54.7 °F 94% 29.70 in 5.0 mi SSW 10.4 mph 19.6 mph N/A   Overcast
8:34 AM 56.5 °F - 54.7 °F 94% 29.71 in 4.0 mi SSW 10.4 mph 19.6 mph N/A   Overcast
8:55 AM 56.5 °F - 54.9 °F 94% 29.70 in 4.0 mi SSW 8.1 mph 19.6 mph N/A   Overcast
9:15 AM 56.3 °F - 54.7 °F 94% 29.71 in 3.0 mi SSW 10.4 mph 19.6 mph N/A   Overcast
9:35 AM 56.7 °F - 55.0 °F 94% 29.71 in 4.0 mi SSW 11.5 mph 17.3 mph N/A   Overcast
10:15 AM 56.7 °F - 54.9 °F 94% 29.70 in 4.0 mi South 9.2 mph - N/A   Overcast
10:35 AM 57.2 °F - 55.0 °F 92% 29.71 in 5.0 mi South 13.8 mph 19.6 mph N/A Rain Light Rain
10:55 AM 57.0 °F - 55.2 °F 94% 29.70 in 4.0 mi South 12.7 mph 19.6 mph N/A Rain Rain
11:15 AM 57.2 °F - 55.4 °F 94% 29.70 in 5.0 mi SSW 13.8 mph 17.3 mph N/A   Overcast
11:35 AM 57.2 °F - 55.4 °F 94% 29.69 in 5.0 mi SSW 12.7 mph 16.1 mph N/A Rain Light Rain
11:55 AM 57.2 °F - 55.4 °F 94% 29.69 in 7.0 mi SSW 15.0 mph 20.7 mph N/A   Overcast
12:15 PM 57.6 °F - 55.4 °F 92% 29.69 in 7.0 mi SSW 13.8 mph 21.9 mph N/A   Overcast
12:35 PM 57.7 °F - 55.4 °F 92% 29.68 in 7.0 mi SSW 16.1 mph 21.9 mph N/A   Overcast
12:54 PM 58.1 °F - 55.6 °F 91% 29.66 in 5.0 mi South 12.7 mph 20.7 mph N/A   Overcast
1:14 PM 58.1 °F - 55.8 °F 92% 29.65 in 4.0 mi SSW 11.5 mph 19.6 mph N/A   Overcast
1:35 PM 58.5 °F - 56.3 °F 93% 29.64 in 5.0 mi SSW 15.0 mph 23.0 mph N/A   Overcast
1:54 PM 58.5 °F - 56.3 °F 93% 29.63 in 5.0 mi SSW 15.0 mph 21.9 mph N/A   Overcast
2:15 PM 58.8 °F - 56.3 °F 91% 29.63 in 5.0 mi South 13.8 mph 21.9 mph N/A   Overcast
2:34 PM 59.0 °F - 56.1 °F 90% 29.61 in 7.0 mi SSW 9.2 mph 20.7 mph N/A   Overcast
2:55 PM 59.2 °F - 55.9 °F 89% 29.59 in 10.0 mi South 12.7 mph 19.6 mph N/A   Overcast
3:14 PM 59.0 °F - 55.9 °F 90% 29.60 in 10.0 mi South 6.9 mph 17.3 mph N/A   Overcast
3:35 PM 57.7 °F - 55.6 °F 92% 29.59 in 7.0 mi South 10.4 mph 18.4 mph N/A   Overcast
3:55 PM 58.1 °F - 55.9 °F 93% 29.59 in 4.0 mi South 11.5 mph 18.4 mph N/A   Overcast
4:15 PM 58.1 °F - 56.3 °F 94% 29.58 in 3.0 mi South 10.4 mph 18.4 mph N/A   Overcast
4:55 PM 58.1 °F - 56.1 °F 93% 29.57 in 4.0 mi South 13.8 mph 19.6 mph N/A Rain Light Rain
5:14 PM 57.6 °F - 55.8 °F 94% 29.56 in 4.0 mi South 13.8 mph 19.6 mph N/A Rain Light Rain
5:35 PM 58.1 °F - 56.1 °F 93% 29.55 in 5.0 mi South 10.4 mph 21.9 mph N/A Rain Light Rain
5:54 PM 57.6 °F - 55.8 °F 94% 29.55 in 5.0 mi South 15.0 mph 20.7 mph N/A   Overcast
6:14 PM 57.7 °F - 55.9 °F 94% 29.54 in 5.0 mi South 15.0 mph 21.9 mph N/A   Overcast
6:35 PM 58.1 °F - 55.9 °F 93% 29.52 in 7.0 mi South 12.7 mph 20.7 mph N/A   Overcast
6:55 PM 58.1 °F - 55.8 °F 92% 29.52 in 7.0 mi South 13.8 mph 24.2 mph N/A   Overcast
7:15 PM 58.1 °F - 55.4 °F 91% 29.51 in 7.0 mi South 16.1 mph 25.3 mph N/A   Overcast
7:35 PM 58.5 °F - 55.2 °F 89% 29.49 in 10.0 mi South 17.3 mph 27.6 mph N/A   Overcast
7:54 PM 58.6 °F - 55.0 °F 88% 29.48 in 10.0 mi South 15.0 mph 25.3 mph N/A Rain Light Rain
8:14 PM 57.7 °F - 55.4 °F 92% 29.45 in 4.0 mi SSE 13.8 mph 20.7 mph N/A Rain Rain
8:34 PM 57.9 °F - 55.0 °F 90% 29.44 in 10.0 mi South 16.1 mph 26.5 mph N/A   Overcast
8:55 PM 57.4 °F - 55.2 °F 92% 29.43 in 2.5 mi South 15.0 mph 23.0 mph N/A Rain Rain
9:15 PM 56.8 °F - 54.3 °F 91% 29.45 in 5.0 mi WSW 13.8 mph 29.9 mph N/A Rain Heavy Rain
9:55 PM 51.3 °F - 50.4 °F 97% 29.46 in 5.0 mi SW 3.5 mph - N/A Rain Light Rain
10:15 PM 51.8 °F - 50.9 °F 97% 29.45 in 7.0 mi Calm Calm - N/A Rain Light Rain
10:35 PM 51.8 °F - 51.3 °F 98% 29.43 in 7.0 mi Calm Calm - N/A Rain Light Rain
10:55 PM 51.6 °F - 51.1 °F 98% 29.41 in 4.0 mi West 3.5 mph - N/A Rain Light Rain
11:15 PM 51.4 °F - 50.9 °F 98% 29.42 in 3.0 mi Calm Calm - N/A   Drizzle
11:35 PM 51.3 °F - 50.9 °F 99% 29.41 in 0.8 mi West 3.5 mph - N/A   Drizzle
11:54 PM 50.9 °F - 50.4 °F 98% 29.41 in 1.0 mi WSW 4.6 mph - N/A Rain Light Rain